map of SZB home
SZB - Airport
Location
City:  Kuala Lumpur, Selangor, Malaysia
Near (Alt.):Subang
Name:Sultan Abdul Aziz Shah Airport
Old (Alt.):Subang International Airport
ICAO:WMSA
IATA:SZB

Details
Type:Airport (Aerodrome, Airfield)
Use:Public/Civil, International (customs port of entry)
Latitude:307'50"N (3.130583)
Longitude:10132'58"E (101.549333)
Datum:WGS 1984
Elevation:90 ft (27 m)
Variation:0.03W (WMM2015 magnetic declination)
0.01 annual change
Runways:1
Longest:12401 × 148 ft (3780 × 45 m), paved

Time
Time Zone:UTC+8
Local Time:

Weather
METAR:WMSA 192200Z 00000KT 8000 FEW017CB SCT140 BKN280 25/24 Q1009
TAF:WMSA 191700Z 1918/2018 02005KT 9000 FEW026 SCT140 BKN280
TEMPO 2009/2013 4000 TSRA FEW015CB SCT018 BKN150

Related Locations
Nearby:
Farthest:SEGZ: 12443 mi / 20024 km
Gualaquiza, S, EC

Find:

   beyond  
but within

Other Information
Maps:
NOTAMs:
Links:
Sources:

  
flag of Malaysia
flag of Selangor
flag of Kuala Lumpur
  

Sectional Chart

Flight Planning
at skyvector.com

Satellite Image

Google Maps Satellite view

 

Copyright © 2004-2017 Karl L. Swartz. All rights reserved.
The Great Circle Mapper name and logo are trademarks of the Great Circle Mapper.
All other trademarks mentioned herein belong to their respective owners.
Please see credits for attibutions and further copyright information.

  Follow gcmap on Facebook Follow gcmap on Twitter Follow gcmap on Google+ GCmap on LinkedIn

hCard Microformat

Geo Microformat